Flag for Gambia Weather past 2 weeks in Serekunda, Gambia

Now
82 °F

Passing clouds.


Feels Like: 88 °F
Forecast: N/A
Wind: 9 mph from Northwest

Location: Banjul / Yundum

Current Time: Jul 24, 2014 at 9:03:43 PM

Latest Report: Jul 24, 2014 at 8:00 PM


Visibility: N/A

Pressure: 29.92 "Hg

Humidity: 74%

Dew point: 73 °F

Location of SerekundaLocation

Historic Weather in Serekunda — Graph

°F

Serekunda temperature yesterday

Maximum temperature yesterday: 88 °F (at 11:00 AM)
Minimum temperature yesterday: 79 °F (at 9:00 AM)
Average temperature yesterday: 83 °F

Past Weeks' High & Low Weather Summary

 TemperatureHumidityPressure
High93 °F (Jul 12, 2:00 PM)100% (Jul 11, 9:00 PM)30.01 "Hg (Jul 11, 9:00 PM)
Low73 °F (Jul 11, 8:00 PM)55% (Jul 17, 4:00 PM)29.83 "Hg (Jul 14, 7:00 AM)
Average83 °F79%29.93 "Hg
* Reported Jul 9 8:00 PM — Jul 24 8:00 PM, Serekunda, Weather by CustomWeather, © 2014

Note: Actual official high and low records may vary slightly from our data, if they occured in-between our weather recording intervals... More about our weather records

Advertising

Serekunda weather history for previous 24 hours

 ConditionsComfort  
Time TempWeatherWind HumidityBarometerVisibility
8:00 PM
Jul 24
82 °FPassing clouds.9 mph74%29.92 "HgN/A
7:00 PM84 °FPartly sunny.12 mph74%29.89 "HgN/A
6:00 PM86 °FScattered clouds.12 mph70%29.89 "HgN/A
5:00 PM86 °FLight rain. Scattered clouds.12 mph66%29.89 "Hg6 mi
4:00 PM90 °FPartly sunny.15 mph63%29.89 "HgN/A
3:00 PM90 °FPartly sunny.14 mph63%N/AN/A
2:00 PM91 °FScattered clouds.10 mph59%29.95 "HgN/A
1:00 PM88 °FPartly sunny.12 mph66%29.95 "HgN/A
12:00 PM90 °FPartly sunny.9 mph63%29.95 "HgN/A
11:00 AM88 °FPartly sunny.9 mph70%29.95 "HgN/A
10:00 AM84 °FPartly sunny.5 mph74%29.95 "HgN/A
9:00 AM81 °FPartly sunny.2 mph89%29.95 "HgN/A
8:00 AM77 °FScattered clouds.3 mph94%29.95 "HgN/A
7:00 AM77 °FScattered clouds.2 mph94%29.92 "HgN/A
6:00 AM77 °FPassing clouds.1 mph94%29.92 "HgN/A
5:00 AM77 °FPassing clouds.2 mph94%29.92 "HgN/A
4:00 AM77 °FPassing clouds.2 mph94%29.95 "HgN/A
3:00 AM77 °FPassing clouds.1 mph94%29.95 "Hg6 mi
2:00 AM77 °FPassing clouds.5 mph94%29.95 "HgN/A
1:00 AM77 °FLight rain. Passing clouds.8 mph94%29.98 "Hg6 mi
12:00 AM81 °FLight rain. Passing clouds.5 mph94%30.01 "Hg6 mi
11:00 PM
Jul 23
81 °FPassing clouds.3 mph94%29.98 "HgN/A
10:00 PM81 °FLight rain. Partly cloudy.No wind94%29.98 "Hg6 mi
9:00 PM82 °FPassing clouds.2 mph84%29.92 "HgN/A
Weather by CustomWeather, © 2014

See weather overviewHow to use our weather pages